EW3146 Weather Reports


Display with metric or nautical units.
time (UTC)temp
F
wind
direction
speed
MPH
gust
MPH
rain 1hr
in
rain 24hr
in
rain mn
in
humidity
%
barometer
mb
20260906164239 76 207 4.0 9.0 0.00 0.00 0.00 78 1021.2
20260906163243 76 116 3.0 9.0 0.00 0.00 0.00 79 1021.2
20260906162237 75 140 4.0 9.0 0.00 0.00 0.00 80 1021.2
20260906161238 75 142 4.0 8.0 0.00 0.00 0.00 80 1021.1
20260906160237 74 164 2.0 8.0 0.00 0.00 0.00 81 1020.9
20260906155236 73 132 3.0 7.0 0.00 0.00 0.00 83 1020.9
20260906153237 72 111 4.0 9.0 0.00 0.00 0.00 83 1020.8
20260906152237 71 104 3.0 6.0 0.00 0.00 0.00 86 1021.1
20260906151235 70 204 4.0 6.0 0.00 0.00 0.00 86 1020.8
20260906150236 70 144 3.0 6.0 0.00 0.00 0.00 86 1021.1
20260906145235 69 184 5.0 8.0 0.00 0.00 0.00 89 1021.2
20260906144234 69 187 6.0 10.0 0.00 0.00 0.00 91 1020.6
20260906143235 68 136 6.0 11.0 0.00 0.00 0.00 93 1020.5
20260906142235 66 167 4.0 7.0 0.00 0.00 0.00 95 1020.7
20260906141233 65 137 3.0 8.0 0.00 0.00 0.00 96 1020.8
20260906135232 62 159 3.0 5.0 0.00 0.00 0.00 96 1021.4
20260906134233 62 137 2.0 5.0 0.00 0.00 0.00 96 1021.5
20260906132232 60 126 0.0 0.0 0.00 0.00 0.00 97 1021.4
20260906131232 58 126 0.0 0.0 0.00 0.00 0.00 96 1021.3
20260906130231 58 126 0.0 0.0 0.00 0.00 0.00 96 1021.5
20260906124229 57 126 0.0 0.0 0.00 0.00 0.00 96 1021.5
20260906123228 57 126 0.0 0.0 0.00 0.00 0.00 96 1021.2
20260906122229 56 126 0.0 0.0 0.00 0.00 0.00 96 1020.6
20260906121228 56 130 0.0 1.0 0.00 0.00 0.00 95 1020.6
20260906120226 56 130 0.0 2.0 0.00 0.00 0.00 96 1020.7
20260906115228 56 130 0.0 1.0 0.00 0.00 0.00 96 1020.6
20260906114227 56 133 0.0 0.0 0.00 0.00 0.00 95 1020.3
20260906113228 56 133 0.0 0.0 0.00 0.00 0.00 95 1020.3
20260906112227 56 133 0.0 0.0 0.00 0.00 0.00 95 1020.2
20260906111227 56 133 0.0 0.0 0.00 0.00 0.00 95 1020.4
20260906105226 56 133 0.0 0.0 0.00 0.00 0.00 95 1020.2
20260906104227 56 133 0.0 0.0 0.00 0.00 0.00 95 1020.1
20260906103227 57 133 0.0 3.0 0.00 0.00 0.00 95 1020.0
20260906102227 57 132 1.0 5.0 0.00 0.00 0.00 95 1019.8
20260906101227 57 138 1.0 3.0 0.00 0.00 0.00 95 1019.9
20260906100227 57 144 0.0 1.0 0.00 0.00 0.00 95 1020.1
20260906095226 57 144 0.0 2.0 0.00 0.00 0.00 95 1020.0
20260906094228 57 144 0.0 1.0 0.00 0.00 0.00 95 1019.9
20260906093225 57 148 0.0 3.0 0.00 0.00 0.00 95 1019.7
20260906091225 58 149 0.0 1.0 0.00 0.00 0.00 95 1019.9
20260906090223 58 139 0.0 0.0 0.00 0.00 0.00 95 1020.0
20260906084222 58 139 1.0 4.0 0.00 0.00 0.00 95 1019.6
20260906083223 58 138 1.0 3.0 0.00 0.00 0.00 95 1019.8
20260906082223 58 138 0.0 3.0 0.00 0.00 0.00 95 1019.8
20260906081223 58 138 0.0 1.0 0.00 0.00 0.00 95 1019.9
20260906080224 58 138 0.0 0.0 0.00 0.00 0.00 95 1019.9
20260906075222 57 138 0.0 0.0 0.00 0.00 0.00 94 1020.1
20260906074222 57 138 0.0 2.0 0.00 0.00 0.00 94 1020.3
20260906073222 58 138 0.0 0.0 0.00 0.00 0.00 94 1020.3
20260906072221 58 138 0.0 1.0 0.00 0.00 0.00 94 1020.5
20260906065220 59 139 0.0 0.0 0.00 0.00 0.00 94 1020.1
20260906064221 59 139 0.0 0.0 0.00 0.00 0.00 94 1020.0
20260906063216 59 139 0.0 0.0 0.00 0.00 0.00 94 1020.1
20260906062215 59 139 0.0 0.0 0.00 0.00 0.00 94 1020.1
20260906061215 60 139 1.0 2.0 0.00 0.00 0.00 94 1020.1
20260906060216 60 139 0.0 0.0 0.00 0.00 0.00 94 1020.2
20260906055214 60 139 0.0 0.0 0.00 0.00 0.00 94 1020.3
20260906054219 61 139 0.0 2.0 0.00 0.00 0.00 94 1020.5
20260906053214 61 138 0.0 2.0 0.00 0.00 0.00 94 1020.3
20260906052211 61 138 2.0 5.0 0.00 0.00 0.00 94 1020.2
20260906051212 61 124 1.0 4.0 0.00 0.00 0.00 94 1020.2
20260906050212 61 119 0.0 3.0 0.00 0.00 0.00 94 1020.1
20260906044214 61 119 0.0 0.0 0.00 0.00 0.00 94 1020.3
20260906043213 61 119 0.0 1.0 0.00 0.00 0.00 94 1020.4
20260906042212 61 119 0.0 0.0 0.00 0.00 0.00 93 1020.4
20260906041213 62 119 0.0 0.0 0.00 0.00 0.00 93 1020.5
20260906040211 62 119 0.0 0.0 0.00 0.00 0.00 93 1020.5
20260906035207 62 119 0.0 0.0 0.00 0.00 0.00 93 1020.7
20260906034207 62 119 0.0 0.0 0.00 0.00 0.00 93 1020.7
20260906032206 62 119 0.0 1.0 0.00 0.00 0.00 92 1020.5
20260906031208 62 119 0.0 0.0 0.00 0.00 0.00 92 1020.3
20260906030206 63 119 0.0 0.0 0.00 0.00 0.00 91 1020.2
20260906024207 63 119 0.0 0.0 0.00 0.00 0.00 91 1020.2
20260906023204 63 119 1.0 3.0 0.00 0.00 0.00 91 1019.7
20260906022204 63 119 2.0 5.0 0.00 0.00 0.00 90 1019.4
20260906021204 63 129 1.0 4.0 0.00 0.00 0.00 90 1019.2
20260906020204 64 134 1.0 5.0 0.00 0.00 0.00 90 1019.1
20260906015204 64 21 0.0 4.0 0.00 0.00 0.00 90 1019.0
20260906014204 64 180 0.0 4.0 0.00 0.00 0.00 90 1018.5
20260906013203 64 194 1.0 4.0 0.00 0.00 0.00 90 1018.5
20260906012202 65 109 1.0 7.0 0.00 0.00 0.00 89 1018.3
20260906011201 65 161 1.0 8.0 0.00 0.00 0.00 90 1018.2
20260906010200 65 143 1.0 6.0 0.00 0.00 0.00 89 1018.3
20260906005200 65 138 3.0 7.0 0.00 0.00 0.00 89 1018.5
20260906004158 66 101 1.0 7.0 0.00 0.00 0.00 89 1018.6
20260906003159 66 31 1.0 5.0 0.00 0.00 0.00 89 1018.7
20260906002157 66 103 3.0 10.0 0.00 0.00 0.00 88 1018.6
20260906000156 67 144 4.0 13.0 0.00 0.00 0.00 87 1018.1
20260905234156 67 142 4.0 11.0 0.00 0.00 0.00 88 1018.6
20260905233154 67 114 2.0 10.0 0.00 0.00 0.00 88 1018.6
20260905232154 67 117 2.0 7.0 0.00 0.00 0.00 89 1018.8
20260905231154 67 139 3.0 9.0 0.00 0.00 0.00 89 1018.6
20260905224154 67 132 5.0 9.0 0.00 0.00 0.00 89 1018.9
20260905222153 67 130 3.0 9.0 0.00 0.00 0.00 89 1019.0
20260905221150 67 117 3.0 7.0 0.00 0.00 0.00 89 1019.3
20260905212149 68 143 3.0 7.0 0.00 0.00 0.00 89 1019.6
20260905211149 68 146 4.0 8.0 0.00 0.00 0.00 89 1019.9
20260905210148 68 142 5.0 8.0 0.00 0.00 0.00 89 1019.9
20260905205147 68 170 4.0 6.0 0.00 0.00 0.00 89 1019.8
20260905204145 68 176 3.0 5.0 0.00 0.00 0.00 88 1020.1
20260905203146 68 211 2.0 5.0 0.00 0.00 0.00 88 1020.2
20260905200140 69 161 3.0 6.0 0.00 0.00 0.00 87 1020.1
20260905193138 69 131 3.0 6.0 0.00 0.00 0.00 88 1020.2
20260905192136 69 154 2.0 5.0 0.00 0.00 0.00 87 1020.2
20260905191136 69 146 3.0 5.0 0.00 0.00 0.00 87 1020.2
20260905190135 69 138 3.0 7.0 0.00 0.00 0.00 86 1020.1
20260905185132 69 137 3.0 8.0 0.00 0.00 0.00 86 1020.1
20260905183132 69 138 2.0 7.0 0.00 0.00 0.00 86 1020.1
20260905182132 69 140 2.0 5.0 0.00 0.00 0.00 87 1020.0
20260905181133 69 132 2.0 8.0 0.00 0.00 0.00 87 1020.1
20260905175131 68 171 2.0 7.0 0.00 0.00 0.00 88 1020.2
20260905174132 68 84 2.0 6.0 0.00 0.00 0.00 89 1020.3
20260905173132 68 96 3.0 9.0 0.00 0.00 0.00 89 1020.3
20260905172131 68 161 4.0 8.0 0.00 0.00 0.00 89 1020.3
20260905171132 68 167 3.0 7.0 0.00 0.00 0.00 90 1020.6
20260905170131 68 85 4.0 9.0 0.00 0.00 0.00 89 1020.4